"SCLK","SCET","ORBIT_NUMBER","ALTITUDE","LATITUDE_PLANEOGRAPHIC","LATITUDE_PLANETOCENTRIC","LOCAL_TRUE_SOLAR_TIME","WEST_LONGITUDE","X_SUN_DIR_DISTANCE","RHO_PRP_SUN_DISTANCE","SOLAR_ZENITH_ANGLE","ELECTRON_PLASMA_FREQUENCY","FPE_QUALITY","FPP_VERIFICATION","ELECTRON_PLASMA_DENSITY","ELECTRON_CYCLOTRON_PERIOD","FCP_QUALITY","B_MAGNITUDE"
"1/0365017982.58483",2014-11-25T17:53:06.819,13836,1564.00,43.58,43.31,"16:19:53",60.23,-1.170,0.870,143.33,,,,,2.35e+00,1,1.52e+01
"1/0365017997.64185",2014-11-25T17:53:21.906,13836,1542.00,44.14,43.88,"16:20:08",60.23,-1.160,0.870,143.05,,,,,2.35e+00,1,1.52e+01
"1/0365018005.34235",2014-11-25T17:53:29.449,13836,1531.00,44.43,44.16,"16:17:57",60.24,-1.160,0.870,142.91,4.00e+01,1,,1.98e+01,2.43e+00,1,1.47e+01
"1/0365018013.04285",2014-11-25T17:53:36.992,13836,1521.00,44.71,44.44,"16:18:05",60.24,-1.150,0.870,142.76,4.50e+01,1,,2.51e+01,2.38e+00,1,1.50e+01
"1/0365018020.39871",2014-11-25T17:53:44.535,13836,1510.00,45.00,44.73,"16:18:12",60.24,-1.150,0.870,142.62,4.60e+01,1,,2.62e+01,2.39e+00,1,1.50e+01
"1/0365018028.09921",2014-11-25T17:53:52.078,13836,1499.00,45.29,45.02,"16:18:20",60.24,-1.140,0.870,142.47,4.50e+01,1,,2.51e+01,2.43e+00,1,1.47e+01
"1/0365018035.45572",2014-11-25T17:53:59.622,13836,1488.00,45.58,45.31,"16:18:27",60.24,-1.140,0.870,142.32,5.80e+01,2,,4.17e+01,2.69e+00,1,1.33e+01
"1/0365018043.15622",2014-11-25T17:54:07.165,13836,1478.00,45.87,45.59,"16:20:52",60.23,-1.130,0.880,142.17,6.20e+01,2,,4.77e+01,2.78e+00,2,1.28e+01
"1/0365018050.51208",2014-11-25T17:54:14.708,13836,1467.00,46.16,45.89,"16:20:59",60.23,-1.130,0.880,142.01,5.90e+01,2,,4.32e+01,2.67e+00,1,1.34e+01
"1/0365018058.21258",2014-11-25T17:54:22.251,13836,1457.00,46.45,46.18,"16:21:06",60.23,-1.120,0.880,141.85,5.60e+01,2,,3.89e+01,2.73e+00,1,1.31e+01
"1/0365018065.56844",2014-11-25T17:54:29.794,13836,1446.00,46.74,46.47,"16:21:14",60.23,-1.120,0.880,141.70,5.40e+01,2,,3.62e+01,2.52e+00,2,1.42e+01
"1/0365018073.26960",2014-11-25T17:54:37.338,13836,1435.00,47.04,46.77,"16:23:39",60.22,-1.110,0.880,141.54,4.90e+01,1,,2.98e+01,2.36e+00,1,1.51e+01
"1/0365018080.62546",2014-11-25T17:54:44.881,13836,1425.00,47.33,47.06,"16:23:46",60.22,-1.110,0.880,141.37,4.50e+01,1,,2.51e+01,2.41e+00,1,1.48e+01
"1/0365018088.32596",2014-11-25T17:54:52.424,13836,1414.00,47.63,47.36,"16:23:53",60.22,-1.100,0.880,141.21,4.80e+01,2,,2.86e+01,2.48e+00,1,1.44e+01
"1/0365018096.02646",2014-11-25T17:54:59.967,13836,1404.00,47.93,47.66,"16:26:18",60.21,-1.100,0.880,141.04,5.50e+01,2,,3.75e+01,2.76e+00,1,1.29e+01
"1/0365018103.38232",2014-11-25T17:55:07.510,13836,1393.00,48.23,47.96,"16:26:25",60.21,-1.090,0.880,140.87,5.90e+01,2,,4.32e+01,2.94e+00,1,1.21e+01
"1/0365018111.08348",2014-11-25T17:55:15.054,13836,1383.00,48.53,48.26,"16:28:50",60.20,-1.090,0.890,140.70,6.30e+01,2,,4.92e+01,3.04e+00,1,1.17e+01
"1/0365018118.43934",2014-11-25T17:55:22.597,13836,1372.00,48.84,48.56,"16:31:15",60.19,-1.080,0.890,140.53,7.90e+01,2,,7.74e+01,3.55e+00,1,1.01e+01
"1/0365018126.13984",2014-11-25T17:55:30.140,13836,1362.00,49.14,48.86,"16:31:22",60.19,-1.080,0.890,140.35,8.40e+01,2,,8.75e+01,,,
"1/0365018133.49570",2014-11-25T17:55:37.683,13836,1352.00,49.45,49.17,"16:33:47",60.18,-1.070,0.890,140.18,8.00e+01,2,,7.94e+01,3.02e+00,1,1.18e+01
"1/0365018141.19620",2014-11-25T17:55:45.226,13836,1341.00,49.75,49.48,"16:36:12",60.17,-1.070,0.890,140.00,7.60e+01,2,,7.16e+01,2.95e+00,1,1.21e+01
"1/0365018148.55271",2014-11-25T17:55:52.770,13836,1331.00,50.06,49.78,"16:38:37",60.16,-1.060,0.890,139.82,6.10e+01,2,,4.61e+01,,,
"1/0365018156.25321",2014-11-25T17:56:00.313,13836,1321.00,50.37,50.09,"16:41:02",60.15,-1.060,0.890,139.63,5.80e+01,2,,4.17e+01,2.75e+00,1,1.30e+01
"1/0365018163.60907",2014-11-25T17:56:07.856,13836,1310.00,50.68,50.40,"16:43:27",60.14,-1.050,0.900,139.45,5.80e+01,2,,4.17e+01,,,
"1/0365018171.30957",2014-11-25T17:56:15.399,13836,1300.00,50.99,50.72,"16:45:52",60.13,-1.050,0.900,139.26,5.10e+01,2,,3.23e+01,,,
"1/0365018179.01007",2014-11-25T17:56:22.942,13836,1290.00,51.30,51.03,"16:48:16",60.12,-1.040,0.900,139.07,5.00e+01,2,,3.10e+01,,,
"1/0365018186.36659",2014-11-25T17:56:30.486,13836,1280.00,51.62,51.34,"16:50:41",60.11,-1.040,0.900,138.88,4.40e+01,2,,2.40e+01,2.55e+00,1,1.40e+01
"1/0365018194.06709",2014-11-25T17:56:38.029,13836,1270.00,51.94,51.66,"16:55:24",60.09,-1.030,0.900,138.68,4.00e+01,1,,1.98e+01,2.51e+00,1,1.42e+01
"1/0365018201.42295",2014-11-25T17:56:45.572,13836,1259.00,52.25,51.98,"16:57:48",60.08,-1.030,0.900,138.49,4.20e+01,1,,2.19e+01,2.56e+00,1,1.39e+01
"1/0365018209.12345",2014-11-25T17:56:53.115,13836,1249.00,52.57,52.30,"17:02:31",60.06,-1.020,0.900,138.29,4.20e+01,2,,2.19e+01,2.42e+00,1,1.48e+01
"1/0365018216.47931",2014-11-25T17:57:00.658,13836,1239.00,52.89,52.62,"17:04:56",60.05,-1.020,0.910,138.09,4.20e+01,2,,2.19e+01,2.50e+00,2,1.43e+01
"1/0365018224.18047",2014-11-25T17:57:08.202,13836,1229.00,53.21,52.94,"17:09:38",60.03,-1.010,0.910,137.89,4.30e+01,2,,2.29e+01,2.42e+00,2,1.47e+01
"1/0365018231.53633",2014-11-25T17:57:15.745,13836,1219.00,53.53,53.26,"17:14:20",60.01,-1.000,0.910,137.68,4.30e+01,2,,2.29e+01,2.32e+00,1,1.54e+01
"1/0365018239.23683",2014-11-25T17:57:23.288,13836,1209.00,53.86,53.58,"17:19:03",59.99,-1.000,0.910,137.48,4.40e+01,2,,2.40e+01,2.38e+00,1,1.50e+01
"1/0365018246.59269",2014-11-25T17:57:30.831,13836,1199.00,54.18,53.91,"17:23:45",59.97,-0.990,0.910,137.27,4.30e+01,2,,2.29e+01,2.17e+00,2,1.65e+01
"1/0365018254.29384",2014-11-25T17:57:38.375,13836,1190.00,54.51,54.24,"17:28:27",59.95,-0.990,0.910,137.06,4.60e+01,1,,2.62e+01,2.31e+00,2,1.54e+01
"1/0365018261.64970",2014-11-25T17:57:45.918,13836,1180.00,54.84,54.57,"17:33:10",59.93,-0.980,0.920,136.85,5.00e+01,2,,3.10e+01,2.44e+00,1,1.47e+01
"1/0365018269.35020",2014-11-25T17:57:53.461,13836,1170.00,55.17,54.90,"17:37:52",59.91,-0.980,0.920,136.63,5.20e+01,2,,3.35e+01,2.33e+00,2,1.53e+01
"1/0365018277.05070",2014-11-25T17:58:01.004,13836,1160.00,55.50,55.23,"17:44:52",59.88,-0.970,0.920,136.42,5.00e+01,2,,3.10e+01,2.38e+00,1,1.50e+01
"1/0365018284.40656",2014-11-25T17:58:08.547,13836,1150.00,55.83,55.56,"17:49:34",59.86,-0.970,0.920,136.20,5.00e+01,2,,3.10e+01,2.31e+00,2,1.55e+01
"1/0365018292.10772",2014-11-25T17:58:16.091,13836,1141.00,56.16,55.89,"17:56:34",59.83,-0.960,0.920,135.98,5.40e+01,2,,3.62e+01,2.29e+00,2,1.56e+01
"1/0365018299.46358",2014-11-25T17:58:23.634,13836,1131.00,56.50,56.23,"18:03:34",59.80,-0.950,0.920,135.75,6.30e+01,2,,4.92e+01,2.44e+00,1,1.46e+01
"1/0365018307.16408",2014-11-25T17:58:31.177,13836,1121.00,56.84,56.57,"18:10:34",59.77,-0.950,0.930,135.53,5.20e+01,2,,3.35e+01,2.30e+00,1,1.55e+01
"1/0365018314.51994",2014-11-25T17:58:38.720,13836,1112.00,57.17,56.91,"18:17:34",59.74,-0.940,0.930,135.30,4.90e+01,1,,2.98e+01,2.30e+00,1,1.55e+01
"1/0365018322.22044",2014-11-25T17:58:46.263,13836,1102.00,57.51,57.25,"18:24:34",59.71,-0.940,0.930,135.07,4.80e+01,2,,2.86e+01,,,
"1/0365018329.57696",2014-11-25T17:58:53.807,13836,1093.00,57.85,57.59,"18:31:34",59.68,-0.930,0.930,134.84,4.20e+01,2,,2.19e+01,2.27e+00,1,1.57e+01
"1/0365018337.27746",2014-11-25T17:59:01.350,13836,1083.00,58.19,57.93,"18:40:51",59.64,-0.930,0.930,134.61,5.00e+01,1,,3.10e+01,2.34e+00,1,1.53e+01
"1/0365018344.63332",2014-11-25T17:59:08.893,13836,1074.00,58.54,58.27,"18:47:51",59.61,-0.920,0.930,134.37,4.90e+01,2,,2.98e+01,2.41e+00,1,1.48e+01
"1/0365018352.33382",2014-11-25T17:59:16.436,13836,1064.00,58.88,58.62,"18:57:08",59.57,-0.910,0.940,134.14,4.90e+01,2,,2.98e+01,2.40e+00,2,1.49e+01
"1/0365018360.03432",2014-11-25T17:59:23.979,13836,1055.00,59.23,58.97,"19:06:26",59.53,-0.910,0.940,133.90,4.70e+01,1,,2.74e+01,2.38e+00,1,1.50e+01
"1/0365018367.39083",2014-11-25T17:59:31.523,13836,1046.00,59.58,59.32,"19:15:43",59.49,-0.900,0.940,133.65,4.90e+01,2,,2.98e+01,2.43e+00,1,1.47e+01
"1/0365018375.09133",2014-11-25T17:59:39.066,13836,1036.00,59.92,59.67,"19:25:00",59.45,-0.900,0.940,133.41,4.60e+01,1,,2.62e+01,2.52e+00,1,1.41e+01
"1/0365018382.44719",2014-11-25T17:59:46.609,13836,1027.00,60.28,60.02,"19:36:35",59.40,-0.890,0.940,133.16,4.60e+01,1,,2.62e+01,2.51e+00,1,1.42e+01
"1/0365018390.14769",2014-11-25T17:59:54.152,13836,1018.00,60.63,60.37,"19:48:10",59.35,-0.880,0.950,132.92,4.60e+01,1,,2.62e+01,2.49e+00,1,1.44e+01
"1/0365018397.50355",2014-11-25T18:00:01.695,13836,1009.00,60.98,60.72,"19:59:45",59.30,-0.880,0.950,132.67,4.40e+01,2,,2.40e+01,2.60e+00,1,1.38e+01
"1/0365018405.20471",2014-11-25T18:00:09.239,13836,1000.00,61.33,61.08,"20:11:20",59.25,-0.870,0.950,132.42,4.20e+01,1,,2.19e+01,2.61e+00,1,1.37e+01
"1/0365018412.56057",2014-11-25T18:00:16.782,13836,991.00,61.69,61.44,"20:22:55",59.20,-0.870,0.950,132.16,4.30e+01,1,,2.29e+01,,,
"1/0365018420.26107",2014-11-25T18:00:24.325,13836,982.00,62.05,61.80,"20:34:30",59.15,-0.860,0.950,131.91,4.90e+01,1,,2.98e+01,2.70e+00,1,1.32e+01
"1/0365018427.61693",2014-11-25T18:00:31.868,13836,973.00,62.41,62.16,"20:48:22",59.09,-0.850,0.950,131.65,5.40e+01,2,,3.62e+01,2.54e+00,1,1.40e+01
"1/0365018435.31743",2014-11-25T18:00:39.411,13836,964.00,62.77,62.52,"21:02:14",59.03,-0.850,0.960,131.39,4.60e+01,1,,2.62e+01,2.42e+00,1,1.48e+01
"1/0365018443.01858",2014-11-25T18:00:46.955,13836,955.00,63.13,62.88,"21:18:24",58.96,-0.840,0.960,131.13,4.30e+01,1,,2.29e+01,2.21e+00,1,1.62e+01
"1/0365018450.37445",2014-11-25T18:00:54.498,13836,946.00,63.49,63.24,"21:32:17",58.90,-0.840,0.960,130.86,4.50e+01,2,,2.51e+01,2.31e+00,1,1.55e+01
"1/0365018458.07495",2014-11-25T18:01:02.041,13836,937.00,63.85,63.61,"21:48:27",58.83,-0.830,0.960,130.60,5.00e+01,2,,3.10e+01,2.42e+00,1,1.47e+01
"1/0365018465.43081",2014-11-25T18:01:09.584,13836,929.00,64.22,63.98,"22:04:37",58.76,-0.820,0.960,130.33,4.90e+01,2,,2.98e+01,2.32e+00,1,1.54e+01
"1/0365018473.13131",2014-11-25T18:01:17.127,13836,920.00,64.59,64.35,"22:23:04",58.68,-0.820,0.970,130.06,4.90e+01,2,,2.98e+01,2.20e+00,1,1.62e+01
"1/0365018480.48782",2014-11-25T18:01:24.671,13836,911.00,64.95,64.72,"22:41:31",58.60,-0.810,0.970,129.79,5.30e+01,2,,3.48e+01,2.19e+00,1,1.63e+01
"1/0365018488.18832",2014-11-25T18:01:32.214,13836,903.00,65.32,65.09,"22:59:59",58.52,-0.800,0.970,129.51,5.30e+01,2,,3.48e+01,2.27e+00,1,1.57e+01
"1/0365018495.54418",2014-11-25T18:01:39.757,13836,894.00,65.69,65.46,"23:18:26",58.44,-0.800,0.970,129.24,5.40e+01,2,,3.62e+01,2.29e+00,1,1.56e+01
"1/0365018503.24468",2014-11-25T18:01:47.300,13836,886.00,66.07,65.84,"23:39:11",58.35,-0.790,0.970,128.96,6.90e+01,2,,5.90e+01,,,
"1/0365018510.60054",2014-11-25T18:01:54.843,13836,877.00,66.44,66.21,"00:02:14",58.25,-0.790,0.980,128.68,6.90e+01,2,,5.90e+01,2.49e+00,2,1.43e+01
"1/0365018518.30170",2014-11-25T18:02:02.387,13836,869.00,66.81,66.59,"00:22:59",58.16,-0.780,0.980,128.40,6.30e+01,2,,4.92e+01,2.59e+00,1,1.38e+01
"1/0365018526.00220",2014-11-25T18:02:09.930,13836,861.00,67.19,66.97,"00:48:19",58.05,-0.770,0.980,128.11,6.20e+01,2,,4.77e+01,2.89e+00,1,1.24e+01
"1/0365018533.35806",2014-11-25T18:02:17.473,13836,852.00,67.57,67.35,"01:11:21",57.95,-0.770,0.980,127.83,6.00e+01,2,,4.46e+01,2.58e+00,1,1.38e+01
"1/0365018541.05856",2014-11-25T18:02:25.016,13836,844.00,67.95,67.73,"01:36:41",57.84,-0.760,0.980,127.54,7.20e+01,2,,6.43e+01,2.73e+00,1,1.31e+01
"1/0365018548.41442",2014-11-25T18:02:32.559,13836,836.00,68.33,68.11,"02:04:18",57.72,-0.750,0.990,127.25,5.80e+01,2,,4.17e+01,,,
"1/0365018556.11557",2014-11-25T18:02:40.103,13836,828.00,68.71,68.50,"02:31:56",57.60,-0.750,0.990,126.96,5.10e+01,2,,3.23e+01,2.68e+00,1,1.33e+01
"1/0365018563.47144",2014-11-25T18:02:47.646,13836,820.00,69.09,68.88,"03:01:51",57.47,-0.740,0.990,126.66,5.00e+01,2,,3.10e+01,2.70e+00,1,1.32e+01
"1/0365018571.17194",2014-11-25T18:02:55.189,13836,812.00,69.48,69.27,"03:34:03",57.33,-0.730,0.990,126.37,4.70e+01,1,,2.74e+01,2.27e+00,1,1.57e+01
"1/0365018578.52780",2014-11-25T18:03:02.732,13836,804.00,69.86,69.66,"04:06:16",57.19,-0.730,0.990,126.07,4.90e+01,2,,2.98e+01,,,
"1/0365018586.22830",2014-11-25T18:03:10.275,13836,796.00,70.25,70.05,"04:40:46",57.04,-0.720,0.990,125.77,5.30e+01,2,,3.48e+01,2.48e+00,1,1.44e+01
"1/0365018593.58481",2014-11-25T18:03:17.819,13836,788.00,70.64,70.44,"05:15:16",56.89,-0.710,1.000,125.47,5.00e+01,2,,3.10e+01,2.54e+00,1,1.40e+01
"1/0365018601.28531",2014-11-25T18:03:25.362,13836,780.00,71.02,70.83,"05:54:21",56.72,-0.710,1.000,125.17,5.00e+01,2,,3.10e+01,2.48e+00,1,1.44e+01
"1/0365018608.64117",2014-11-25T18:03:32.905,13836,773.00,71.41,71.22,"06:33:26",56.55,-0.700,1.000,124.86,4.60e+01,1,,2.62e+01,2.59e+00,1,1.38e+01
"1/0365018616.34167",2014-11-25T18:03:40.448,13836,765.00,71.81,71.62,"07:14:48",56.37,-0.690,1.000,124.55,6.00e+01,2,,4.46e+01,2.67e+00,1,1.34e+01
"1/0365018624.04217",2014-11-25T18:03:47.991,13836,757.00,72.20,72.01,"08:00:46",56.17,-0.690,1.000,124.24,5.90e+01,2,,4.32e+01,2.87e+00,1,1.24e+01
"1/0365018631.39869",2014-11-25T18:03:55.535,13836,750.00,72.59,72.41,"08:46:43",55.97,-0.680,1.010,123.93,5.90e+01,2,,4.32e+01,2.67e+00,1,1.34e+01
"1/0365018639.09919",2014-11-25T18:04:03.078,13836,742.00,72.99,72.81,"09:34:58",55.76,-0.670,1.010,123.62,6.50e+01,2,,5.24e+01,2.67e+00,1,1.34e+01
"1/0365018646.45505",2014-11-25T18:04:10.621,13836,735.00,73.38,73.21,"10:27:48",55.53,-0.670,1.010,123.31,9.50e+01,2,,1.12e+02,,,
"1/0365018654.15555",2014-11-25T18:04:18.164,13836,728.00,73.78,73.61,"11:22:56",55.29,-0.660,1.010,122.99,1.17e+02,2,,1.70e+02,,,
"1/0365018661.51141",2014-11-25T18:04:25.707,13836,720.00,74.18,74.01,"12:20:21",55.04,-0.650,1.010,122.67,8.60e+01,2,,9.17e+01,2.88e+00,1,1.24e+01
"1/0365018669.21256",2014-11-25T18:04:33.251,13836,713.00,74.58,74.41,"13:22:21",54.77,-0.650,1.020,122.35,7.50e+01,2,,6.98e+01,2.95e+00,1,1.21e+01
"1/0365018676.56843",2014-11-25T18:04:40.794,13836,706.00,74.98,74.81,"14:28:56",54.48,-0.640,1.020,122.03,7.50e+01,2,,6.98e+01,2.89e+00,1,1.24e+01
"1/0365018684.26893",2014-11-25T18:04:48.337,13836,699.00,75.38,75.22,"15:37:49",54.18,-0.630,1.020,121.71,8.20e+01,2,,8.34e+01,2.75e+00,2,1.30e+01
"1/0365018691.62479",2014-11-25T18:04:55.880,13836,692.00,75.78,75.62,"16:51:17",53.86,-0.630,1.020,121.38,8.50e+01,2,,8.96e+01,2.63e+00,2,1.36e+01
"1/0365018699.32529",2014-11-25T18:05:03.423,13836,685.00,76.18,76.03,"18:11:37",53.51,-0.620,1.020,121.06,7.90e+01,2,,7.74e+01,2.60e+00,2,1.37e+01
"1/0365018707.02644",2014-11-25T18:05:10.967,13836,678.00,76.59,76.44,"19:34:14",53.15,-0.610,1.020,120.73,7.70e+01,2,,7.35e+01,2.50e+00,2,1.43e+01
"1/0365018714.38230",2014-11-25T18:05:18.510,13836,671.00,76.99,76.85,"21:06:02",52.75,-0.600,1.030,120.40,7.50e+01,2,,6.98e+01,2.35e+00,2,1.52e+01
"1/0365018722.08280",2014-11-25T18:05:26.053,13836,664.00,77.39,77.25,"22:42:25",52.33,-0.600,1.030,120.06,8.50e+01,2,,8.96e+01,2.20e+00,2,1.62e+01
"1/0365018729.43866",2014-11-25T18:05:33.596,13836,658.00,77.80,77.66,"00:25:40",51.88,-0.590,1.030,119.73,1.03e+02,2,,1.32e+02,2.28e+00,1,1.57e+01
"1/0365018737.13916",2014-11-25T18:05:41.139,13836,651.00,78.20,78.07,"02:18:06",51.39,-0.580,1.030,119.39,8.90e+01,2,,9.82e+01,2.37e+00,2,1.51e+01
"1/0365018744.49568",2014-11-25T18:05:48.683,13836,644.00,78.61,78.48,"04:19:41",50.86,-0.580,1.030,119.06,1.05e+02,2,,1.37e+02,2.42e+00,1,1.48e+01
"1/0365018752.19618",2014-11-25T18:05:56.226,13836,638.00,79.02,78.89,"06:28:09",50.30,-0.570,1.040,118.72,1.15e+02,2,,1.64e+02,2.57e+00,1,1.39e+01
"1/0365018759.55204",2014-11-25T18:06:03.769,13836,631.00,79.42,79.30,"08:50:22",49.68,-0.560,1.040,118.38,1.01e+02,2,,1.26e+02,,,
"1/0365018767.25254",2014-11-25T18:06:11.312,13836,625.00,79.83,79.71,"11:24:02",49.01,-0.550,1.040,118.03,9.30e+01,2,,1.07e+02,2.31e+00,2,1.55e+01
"1/0365018774.60905",2014-11-25T18:06:18.856,13836,619.00,80.23,80.12,"14:11:28",48.28,-0.550,1.040,117.69,9.30e+01,2,,1.07e+02,2.26e+00,2,1.58e+01
"1/0365018782.30955",2014-11-25T18:06:26.399,13836,613.00,80.64,80.53,"17:12:38",47.49,-0.540,1.040,117.34,1.11e+02,2,,1.53e+02,2.40e+00,1,1.49e+01
"1/0365018790.01005",2014-11-25T18:06:33.942,13836,607.00,81.04,80.94,"20:32:09",46.62,-0.530,1.040,117.00,1.19e+02,2,,1.76e+02,2.36e+00,2,1.51e+01
"1/0365018797.36592",2014-11-25T18:06:41.485,13836,600.00,81.44,81.35,"00:12:17",45.66,-0.530,1.050,116.65,1.15e+02,2,,1.64e+02,2.24e+00,2,1.60e+01
"1/0365018805.06642",2014-11-25T18:06:49.028,13836,594.00,81.85,81.75,"04:15:21",44.60,-0.520,1.050,116.30,1.11e+02,2,,1.53e+02,2.04e+00,2,1.75e+01
"1/0365018812.42293",2014-11-25T18:06:56.572,13836,589.00,82.25,82.15,"08:45:54",43.42,-0.510,1.050,115.95,1.34e+02,2,,2.23e+02,2.09e+00,2,1.71e+01
"1/0365018820.12343",2014-11-25T18:07:04.115,13836,583.00,82.64,82.55,"13:46:15",42.11,-0.500,1.050,115.59,1.27e+02,2,,2.00e+02,2.04e+00,1,1.75e+01
"1/0365018827.47929",2014-11-25T18:07:11.658,13836,577.00,83.03,82.95,"19:20:59",40.65,-0.500,1.050,115.24,1.32e+02,2,,2.16e+02,2.19e+00,1,1.63e+01
"1/0365018835.17979",2014-11-25T18:07:19.201,13836,571.00,83.42,83.35,"01:39:16",39.00,-0.490,1.050,114.88,1.38e+02,2,,2.36e+02,2.31e+00,1,1.55e+01
"1/0365018842.53565",2014-11-25T18:07:26.744,13836,566.00,83.81,83.73,"08:43:22",37.15,-0.480,1.050,114.52,1.42e+02,2,,2.50e+02,2.31e+00,2,1.54e+01
"1/0365018850.23681",2014-11-25T18:07:34.288,13836,560.00,84.18,84.11,"16:49:22",35.03,-0.470,1.060,114.16,1.54e+02,2,,2.94e+02,2.40e+00,1,1.49e+01
"1/0365018857.59267",2014-11-25T18:07:41.831,13836,555.00,84.55,84.49,"02:01:49",32.62,-0.470,1.060,113.80,1.40e+02,2,,2.43e+02,2.12e+00,1,1.69e+01
"1/0365018865.29317",2014-11-25T18:07:49.374,13836,549.00,84.91,84.85,"12:34:29",29.86,-0.460,1.060,113.44,1.70e+02,2,,3.58e+02,,,
"1/0365018872.64903",2014-11-25T18:07:56.917,13836,544.00,85.26,85.20,"00:45:42",26.67,-0.450,1.060,113.07,2.46e+02,2,,7.50e+02,,,
"1/0365018880.34953",2014-11-25T18:08:04.460,13836,539.00,85.59,85.53,"14:53:48",22.97,-0.440,1.060,112.71,2.59e+02,2,,8.32e+02,,,
"1/0365018888.05068",2014-11-25T18:08:12.004,13836,534.00,85.90,85.85,"07:14:50",18.69,-0.440,1.060,112.34,2.12e+02,2,,5.57e+02,,,
"1/0365018895.40654",2014-11-25T18:08:19.547,13836,529.00,86.18,86.13,"02:11:42",13.73,-0.430,1.070,111.97,2.19e+02,2,,5.95e+02,,,
"1/0365018903.10704",2014-11-25T18:08:27.090,13836,524.00,86.43,86.38,"00:05:02",8.00,-0.420,1.070,111.60,2.03e+02,2,,5.11e+02,2.85e+00,1,1.25e+01
"1/0365018910.46291",2014-11-25T18:08:34.633,13836,519.00,86.64,86.60,"01:01:44",1.47,-0.410,1.070,111.23,2.00e+02,2,,4.96e+02,,,
"1/0365018918.16341",2014-11-25T18:08:42.176,13836,514.00,86.80,86.76,"21:51:15",354.16,-0.410,1.070,110.86,2.03e+02,2,,5.11e+02,2.56e+00,1,1.39e+01
"1/0365018925.51992",2014-11-25T18:08:49.720,13836,509.00,86.90,86.86,"04:13:23",346.21,-0.400,1.070,110.49,2.08e+02,2,,5.37e+02,,,
"1/0365018933.22042",2014-11-25T18:08:57.263,13836,504.00,86.94,86.90,"12:07:11",337.86,-0.390,1.070,110.11,2.30e+02,2,,6.56e+02,2.21e+00,1,1.62e+01
"1/0365018940.57628",2014-11-25T18:09:04.806,13836,500.00,86.92,86.87,"20:14:44",329.45,-0.380,1.070,109.73,2.09e+02,2,,5.42e+02,2.07e+00,2,1.73e+01
"1/0365018948.27678",2014-11-25T18:09:12.349,13836,495.00,86.82,86.78,"03:11:15",321.35,-0.380,1.070,109.36,1.92e+02,2,,4.57e+02,1.87e+00,2,1.91e+01
"1/0365018955.63264",2014-11-25T18:09:19.892,13836,491.00,86.67,86.63,"07:57:07",313.82,-0.370,1.080,108.98,1.84e+02,2,,4.20e+02,1.82e+00,2,1.96e+01
"1/0365018963.33380",2014-11-25T18:09:27.436,13836,487.00,86.47,86.42,"09:51:06",307.04,-0.360,1.080,108.60,1.82e+02,2,,4.11e+02,1.83e+00,2,1.95e+01
"1/0365018971.03430",2014-11-25T18:09:34.979,13836,482.00,86.22,86.17,"08:39:27",301.07,-0.350,1.080,108.22,1.77e+02,2,,3.89e+02,1.87e+00,2,1.91e+01
"1/0365018978.39016",2014-11-25T18:09:42.522,13836,478.00,85.93,85.88,"04:29:02",295.88,-0.350,1.080,107.83,1.74e+02,2,,3.75e+02,1.81e+00,2,1.97e+01
"1/0365018986.09066",2014-11-25T18:09:50.065,13836,474.00,85.62,85.56,"21:35:53",291.40,-0.340,1.080,107.45,1.79e+02,2,,3.97e+02,1.85e+00,2,1.93e+01
"1/0365018993.44652",2014-11-25T18:09:57.608,13836,470.00,85.28,85.22,"12:22:57",287.53,-0.330,1.080,107.06,1.79e+02,2,,3.97e+02,1.78e+00,2,2.01e+01
"1/0365019001.14767",2014-11-25T18:10:05.152,13836,466.00,84.92,84.85,"01:08:33",284.19,-0.320,1.080,106.68,1.74e+02,2,,3.75e+02,1.85e+00,2,1.93e+01
"1/0365019008.50353",2014-11-25T18:10:12.695,13836,462.00,84.54,84.47,"12:08:43",281.31,-0.320,1.080,106.29,1.61e+02,2,,3.21e+02,1.71e+00,2,2.09e+01
"1/0365019016.20403",2014-11-25T18:10:20.238,13836,459.00,84.15,84.08,"21:46:23",278.79,-0.310,1.090,105.90,1.47e+02,2,,2.68e+02,1.65e+00,2,2.17e+01
"1/0365019023.55990",2014-11-25T18:10:27.781,13836,455.00,83.75,83.68,"06:10:42",276.59,-0.300,1.090,105.51,1.41e+02,2,,2.47e+02,1.56e+00,2,2.28e+01
"1/0365019031.26040",2014-11-25T18:10:35.324,13836,451.00,83.35,83.26,"13:33:09",274.66,-0.290,1.090,105.12,1.29e+02,2,,2.06e+02,1.55e+00,2,2.30e+01
"1/0365019038.61691",2014-11-25T18:10:42.868,13836,448.00,82.93,82.84,"20:05:10",272.95,-0.280,1.090,104.73,1.17e+02,2,,1.70e+02,1.42e+00,2,2.51e+01
"1/0365019046.31741",2014-11-25T18:10:50.411,13836,445.00,82.51,82.42,"01:51:22",271.44,-0.280,1.090,104.34,1.16e+02,2,,1.67e+02,1.42e+00,3,2.52e+01
"1/0365019054.01791",2014-11-25T18:10:57.954,13836,441.00,82.08,81.98,"07:03:10",270.08,-0.270,1.090,103.95,1.03e+02,2,,1.32e+02,1.37e+00,3,2.61e+01
"1/0365019061.37377",2014-11-25T18:11:05.497,13836,438.00,81.65,81.54,"11:40:36",268.87,-0.260,1.090,103.55,1.07e+02,2,,1.42e+02,1.40e+00,3,2.55e+01
"1/0365019069.07427",2014-11-25T18:11:13.040,13836,435.00,81.21,81.10,"15:52:50",267.77,-0.250,1.090,103.16,1.01e+02,2,,1.26e+02,1.36e+00,3,2.62e+01
"1/0365019076.43079",2014-11-25T18:11:20.584,13836,432.00,80.77,80.66,"19:39:51",266.78,-0.250,1.090,102.76,8.90e+01,2,,9.82e+01,1.28e+00,3,2.78e+01
"1/0365019084.13129",2014-11-25T18:11:28.127,13836,429.00,80.32,80.21,"23:03:56",265.89,-0.240,1.090,102.36,8.00e+01,2,,7.94e+01,1.25e+00,3,2.85e+01
"1/0365019091.48715",2014-11-25T18:11:35.670,13836,426.00,79.88,79.76,"02:12:00",265.07,-0.230,1.100,101.97,7.70e+01,2,,7.35e+01,1.26e+00,3,2.83e+01
"1/0365019099.18765",2014-11-25T18:11:43.213,13836,424.00,79.43,79.30,"05:04:00",264.32,-0.220,1.100,101.57,7.70e+01,2,,7.35e+01,1.21e+00,3,2.94e+01
"1/0365019106.54351",2014-11-25T18:11:50.756,13836,421.00,78.98,78.84,"07:42:16",263.63,-0.210,1.100,101.17,8.30e+01,2,,8.54e+01,1.25e+00,3,2.85e+01
"1/0365019114.24466",2014-11-25T18:11:58.300,13836,418.00,78.52,78.38,"10:06:46",263.00,-0.210,1.100,100.77,8.30e+01,2,,8.54e+01,1.22e+00,3,2.93e+01
"1/0365019121.60052",2014-11-25T18:12:05.843,13836,416.00,78.06,77.92,"12:19:49",262.42,-0.200,1.100,100.37,8.50e+01,2,,8.96e+01,1.25e+00,3,2.86e+01
"1/0365019129.30102",2014-11-25T18:12:13.386,13836,413.00,77.61,77.46,"14:23:42",261.88,-0.190,1.100,99.97,8.60e+01,2,,9.17e+01,1.20e+00,3,2.97e+01
"1/0365019137.00152",2014-11-25T18:12:20.929,13836,411.00,77.15,76.99,"16:18:25",261.38,-0.180,1.100,99.56,8.70e+01,2,,9.39e+01,1.23e+00,3,2.90e+01
"1/0365019144.35739",2014-11-25T18:12:28.472,13836,409.00,76.69,76.53,"18:03:58",260.92,-0.170,1.100,99.16,8.10e+01,2,,8.14e+01,1.21e+00,3,2.95e+01
"1/0365019152.05854",2014-11-25T18:12:36.016,13836,407.00,76.22,76.06,"19:42:38",260.49,-0.170,1.100,98.76,1.01e+02,2,,1.26e+02,1.20e+00,3,2.98e+01
"1/0365019159.41440",2014-11-25T18:12:43.559,13836,405.00,75.76,75.59,"21:16:43",260.08,-0.160,1.100,98.35,1.05e+02,2,,1.37e+02,1.20e+00,3,2.97e+01
"1/0365019167.11490",2014-11-25T18:12:51.102,13836,403.00,75.29,75.12,"22:41:38",259.71,-0.150,1.100,97.95,1.14e+02,2,,1.61e+02,1.18e+00,3,3.04e+01
"1/0365019174.47076",2014-11-25T18:12:58.645,13836,401.00,74.83,74.65,"00:01:58",259.36,-0.140,1.100,97.54,1.09e+02,2,,1.47e+02,1.16e+00,3,3.07e+01
"1/0365019182.17126",2014-11-25T18:13:06.188,13836,399.00,74.36,74.18,"01:20:01",259.02,-0.130,1.100,97.13,1.14e+02,2,,1.61e+02,1.19e+00,3,3.01e+01
"1/0365019189.52778",2014-11-25T18:13:13.732,13836,398.00,73.89,73.70,"02:31:11",258.71,-0.130,1.100,96.73,1.25e+02,2,,1.94e+02,1.13e+00,3,3.15e+01